Location: Ariel
(45.9570°N, 122.5700°W)
Time: 21:35:00
(UTC-07:00)

Vanguard 3 - Pass Details

Date: 25 August 2019
Orbit: 508 x 3262 km, 33.3° (Epoch: 13 October)

Event Time Altitude Azimuth Distance (km) Brightness Sun altitude
Rises 16:13:35 0° 220° (SW) 5,861 12.3 37.8°
Reaches altitude 10° 16:19:14 10° 207° (SSW) 4,293 11.7 36.9°
Maximum altitude 16:26:23 20° 166° (SSE) 2,776 10.2 35.8°
Drops below altitude 10° 16:31:28 10° 122° (ESE) 2,901 9.8 35.0°
Sets 16:34:21 0° 104° (ESE) 3,518 10.0 34.5°
